Location: Glums�
(55.3568°N, 11.6856°E)
Time: 20:00:08
(UTC+00:00)

Cosmos 1758 Rocket - Pass Details

Date: 07 June 2020
Orbit: 603 x 635 km, 82.5° (Epoch: 04 July)

Event Time Altitude Azimuth Distance (km) Brightness Sun altitude
Exits shadow 00:15:27 15° 193° (SSW) 1,673 5.1 -10.7°
Maximum altitude 00:19:05 85° 281° (W) 633 3.6 -10.6°
Drops below altitude 10° 00:23:34 10° 11° (NNE) 2,018 7.8 -10.4°
Sets 00:25:50 0° 12° (NNE) 2,934 9.3 -10.3°
